Regional Weather Roundup
Issued by NWS Wakefield, VA

Home | Current Version | Previous Version | Text Only | Print | Product List | Glossary Off
Versions: 1 2 3 4 5 6 7 8 9 10 11 12 13 14 15 16 17 18 19 20 21 22 23 24 25 26 27 28 29 30 31 32 33 34 35 36 37 38 39 40 41 42 43 44 45 46 47 48 49 50

000
ASUS41 KAKQ 041415
RWRAKQ

REGIONAL WEATHER ROUNDUP
NATIONAL WEATHER SERVICE WAKEFIELD VA
1000 AM EDT TUE AUG 04 2015

Note: "fair" indicates few or no clouds below 12,000 feet with no
significant weather and/or obstructions to visibility. * = Denotes
station may not report precipitation (e.g., rain,snow,etc.),
thunder or fog.

VAZ042-051-052>054-056-041500-
NORTHERN VIRGINIA

CITY           SKY/WX    TMP DP  RH WIND       PRES   REMARKS
WASH NATIONAL  MOSUNNY   85  68  56 SW5       29.94R
DULLES         MOSUNNY   79  65  62 S5        29.95R
FORT BELVOIR   SUNNY     83  68  60 VRB1      29.93S
QUANTICO       MOSUNNY   85  69  58 W5        29.91R
FREDERICKSBRG* SUNNY     84  71  63 SW3       29.94S
STAFFORD*      SUNNY     81  67  63 W3        29.99R
WARRENTON      SUNNY     82  72  71 SW5       29.94S
CULPEPER*      SUNNY     80  69  69 SW3       29.96S
MANASSAS*      SUNNY     82  70  65 CALM      29.94S
LEESBURG*      SUNNY     82  72  69 SW7       29.96R
WINCHESTER     SUNNY     82  68  61 SW5       29.96R
FRONT ROYAL*   FAIR      81  64  57 SW3       29.95R
LURAY*         FAIR      86  63  45 SW5       29.97S
$$

VAZ048-049-060>072-079>083-041500-
CENTRAL AND SOUTH CENTRAL VIRGINIA

CITY           SKY/WX    TMP DP  RH WIND       PRES   REMARKS
RICHMOND       MOSUNNY   84  71  65 SW12      29.97R
CHESTERFIELD*  FAIR      84  64  51 SW8       29.99R
PETERSBURG*    SUNNY     85  77  75 SW10      29.98S HX  96
HANOVER        SUNNY     83  71  67 SW9       29.98R
TAPPAHANNOCK*  SUNNY     82  69  64 SW6       29.96S
QUINTON*       FAIR      82  73  74 SW9       29.97R
CHARLOTTSVILLE SUNNY     83  65  54 S6        29.97R
GORDONSVILLE*  FAIR      81  68  65 S5        29.96R
ORANGE*        SUNNY     82  68  61 S3        29.97R
LOUISA*        SUNNY     82  70  65 SW8       29.96S
BUMPASS*       FAIR      81  71  71 SW8       29.97R
FARMVILLE*     SUNNY     84  69  62 S8        29.97S
CREWE*         FAIR     N/A N/A N/A SW6       29.99R
FORT PICKETT*  FAIR      83  73  69 W9        29.99S
CHASE CITY*    FAIR      83  75  77 SW6       30.00F
CLARKSVILLE*   FAIR      81  72  74 S7        30.00S
SOUTH HILL*    SUNNY     82  73  74 CALM      30.07R
LAWRENCEVILLE* FAIR      82  73  74 SW9       30.00S
EMPORIA*       MOSUNNY   82  73  74 S10       30.01R
$$

VAZ088>098-041500-
SOUTHEAST VIRGINIA

CITY           SKY/WX    TMP DP  RH WIND       PRES   REMARKS
NORFOLK        SUNNY     84  74  71 SW18G28   29.97F
VIRGINIA BEACH MOSUNNY   87  74  64 SW16      29.97F HX  95
NORFOLK NAVAL  PTSUNNY   83  74  74 SW13G18   29.99S
WEST POINT*    SUNNY     85  72  63 SW7       29.98R
SALUDA*        FAIR      82  73  76 W7        29.96R
NEWPORT NEWS   MOSUNNY   83  74  74 S15       29.97S
LANGLEY AFB    SUNNY     83  75  78 SW20      29.97S
FORT EUSTIS    SUNNY     84  76  78 W9        29.96S
WILLIAMSBURG*  SUNNY     86  75  70 SW6G17    29.98S HX  95
HR EXEC AP*    FAIR      82  75  78 SW12      30.00F
FRANKLIN*      MOSUNNY   83  74  76 SW10G16   30.00S
WAKEFIELD      SUNNY     85  73  67 SW10G18   29.98S
$$

VAZ020-022-025-037-045-041500-
WEST CENTRAL AND SOUTHWEST VIRGINIA

CITY           SKY/WX    TMP DP  RH WIND       PRES   REMARKS
STAUNTON*      SUNNY     84  57  39 SW10      30.02R
WAYNESBORO*    FAIR      79  59  50 SW5       30.02R
HOT SPRINGS VA SUNNY     70  58  66 W8        30.13R
LYNCHBURG      SUNNY     81  68  64 SW6       30.01S
DANVILLE       SUNNY     81  72  74 SW6       30.01R
SOUTH BOSTON*  FAIR      82  72  71 S7        30.00S
MARTINSVILLE   SUNNY     81  68  63 W3        30.04S
ROANOKE        MOSUNNY   81  63  54 SW5       30.03R
BLACKSBURG     SUNNY     77  66  68 S6        30.10R
DUBLIN*          N/A     80  65  60 W3        30.08S
MARION*        SUNNY     74  61  62 W12       30.13R
HILLSVILLE*    SUNNY     75  64  68 SW3       30.10S
RICHLANDS*     FAIR      74  65  74 W6        30.11R
WISE*          SUNNY     79  63  57 W8        30.12R
ABINGDON*      SUNNY     78  60  54 W5        30.09S
$$

MDZ021>025-VAZ099-100-041500-
SOUTHERN MARYLAND AND THE DELMARVA PENINSULA

CITY           SKY/WX    TMP DP  RH WIND       PRES   REMARKS
PATUXENT RIVER MOSUNNY   83  71  67 W12       29.93S
BAY BRIDGE APT   N/A     81  61  50 SW8       29.92S
LEONARDTOWN    SUNNY     81  70  69 SW10      29.95F
DOVER          SUNNY     84  73  68 SW10      29.89S
GEORGETOWN     SUNNY     84  73  69 SW9       29.92S
EASTON         SUNNY     81  72  74 SW13      29.95S
CAMBRIDGE      SUNNY     82  70  65 SW8       29.92S
SALISBURY      SUNNY     83  73  72 SW12      29.93S
OCEAN CITY     SUNNY     87  73  62 SW16      29.92F
WALLOPS ISLAND MOSUNNY   83  75  77 W14       29.95S
ACCOMACK*      SUNNY     84  84 100 SW20      29.96R HX 104
$$

NCZ012>017-030>032-041500-
NORTH CENTRAL AND EASTERN NORTH CAROLINA

CITY           SKY/WX    TMP DP  RH WIND       PRES   REMARKS
ROANOKE RAPIDS FAIR      81  73  78 S12       30.01S
RALEIGH        MOSUNNY   83  73  72 SW7       30.02S
ELIZABETH CITY MOSUNNY   84  77  79 SW13      30.01S
AHOSKIE*       SUNNY     83  74  75 CALM      30.00S
EDENTON*         N/A     84  75  72 SW10      30.01F
CURRITUCK*     MOSUNNY   84  73  68 SW13      30.01S
KILL DEVIL HLS SUNNY     86  77  75 SW9       30.01S HX  97
MANTEO         MOSUNNY   85  77  76 SW10      30.02S HX  95
CAPE HATTERAS  PTSUNNY   81  76  84 SW6       30.04S
TARBORO*         N/A     85  76  74 SW7       30.02R
GOLDSBORO      MOSUNNY   84  75  75 S8        29.99R
WASHINGTON     MOSUNNY   83  74  75 S10       30.03R
GREENVILLE     MOSUNNY   86  75  70 S12       30.03R HX  95
NEW BERN       PTSUNNY   84  75  74 S6        30.03R
WILMINGTON     CLOUDY    80  76  87 S12G21    29.99R
$$

VAZ048-041500-
ELSEWHERE

CITY           SKY/WX    TMP DP  RH WIND       PRES   REMARKS
HARRISBURG PA  SUNNY     79  67  66 VRB3      29.90S
BALTIMORE      MOSUNNY   79  67  66 W7        29.92S
ANNAPOLIS      SUNNY     81  62  52 SW6       29.92R
ANDREWS AFB    SUNNY     85  66  53 W8        29.93S
PHILADELPHIA   MOSUNNY   82  65  56 SW14      29.90R
HENDERSON NC   SUNNY     82  70  66 SW10      30.02R
GREENSBORO     PTSUNNY   82  70  66 S6        30.01S
ROCKY MOUNT    PTSUNNY   86  75  69 S9        30.01S HX  95
$$

VAZ100-041500-
MARINE

STATION/POSITION TIME  TEMP    WIND        PRES    WAVE   SWELL
                       AIR SEA DIR/SP/G            HT/PER HT/PER
                 (UTC) (F)     (DEG/KT/KT) (MB)    (FT/S) (FT/S)
BRANDYWINE LGT   1300   78 77  240/ 11/ 14 1012.7F
CAPE MAY NJ      1300   78 76  210/  8/ 11 1012.4F
LEWES DE         1300   82 71  250/ 11/ 14 1012.5F
15NM E FENWICK I 1350   78 79  210/ 17/ 21 1012.8F   6/ 7   3/11
OCEAN-CITY-INLET 1300   81 80  240/ 11/ 13 1012.7R
WACHAPREAGUE VA  1300   83 81  230/  8/ 13 1014.2R
GOOSES REEF MD   1400   81 82  260/ 12/ 14 1014.5R
COVE POINT MD    1300   78     240/  8/ 11 1014.1R
SOLOMONS ISLAND  1300      83                N/A
BISHOPS HEAD MD  1300   80 80  230/  9/ 11 1012.6F
PINEY POINT MD   1300          280/  5/  6   N/A
POTOMAC MD       1400   81 83  270/ 12/ 14 1012.7R   1/ 3
CAMBRIDGE MD     1300   81 84  230/  6/  8 1012.4R
LEWISETTA VA     1300   80 83  280/  9/ 13 1013.4R
RAPPAHANNOCK LGT 1300          220/ 19/ 21 1014.6R
STINGRAY PT      1400   82 83  240/ 16/ 17 1014.2R   1/ 3
YORK RVR RNG VA  1300   80     230/ 17/ 19 1013.9R
YORKTOWN VA      1300   80 84  240/ 12/ 15 1014.2R
JAMESTOWN VA     1400   81 85  230/ 12/ 16   N/A
DOMINION TERM VA 1300   78     220/ 20/ 23 1014.5F
KIPTOPEKE VA     1300      81  230/ 18/ 21   N/A
CHES BAY BRIDGE  1300   79 80  210/ 17/ 19 1014.6S
CAPE HENRY VA    1300   80     240/ 12/ 19   N/A
CHESAPEAKE LGHT  1300   78     230/ 15/ 15 1015.9R
WILLOUBY STN VA  1300   79     210/ 17/ 20 1016.0S
CAPE HENRY BUOY  1328      76                N/A     4/ 7   2/11
1ST LANDING BUOY 1400      80              1014.5F   2/ 4
CAPE CHARLES BUO 1326      71                N/A     3/ 7   2/ 7
OFFSHORE WE BUOY 1311      81                N/A     4/ 7   3/ 7
64NM E OF VA BCH 1350   81 81  210/ 16/ 17 1015.4F   4/ 6   2/11
DUCK PIER NC     1300   81 62  220/ 10/ 14 1015.4F
44100 DUCK FRF   1324      78                N/A     3/ 6
44056 DUCK FRF   1311      71                N/A     2/ 6
OREGON INLET NC  1300   81 80  210/ 13/ 15 1016.7R
HATTERAS NC      1300   81 78  210/  6/  8 1016.9R
DIAMOND SHLS NC  1350   79 84  170/ 10/ 16 1017.7R   4/ 4   3/ 7
CAPE LOOKOUT NC  1400   82     190/ 16/ 19 1016.6R
$$


USA.gov is the U.S. government's official web portal to all federal, state and local government web resources and services.